Espaço - Ciências - Fenômenos Naturais
Meteógrafos Informações Meteorológicas em tempo real

Aeroporto Castro Pinto

Histórico do Tempo
Temperatura atual: 22 graus 71 F    Umidade relativa: 100 %
Velocidade do vento: 06 nós 10 Km/h    Direção: 210 graus SSW
Ajuste do altímetro ..: 1016 HPA
Visibilidade: Ótima    Tempo presente: Parcialmente Nublado

Observação
Céu nublado a 1500 Pés., Céu encoberto a7000 Pés.

Data Hora BRTTempo°CUmidadePressãoVentoVisib.
17/08 - 23:55   Parcialmente Nublado 22° 100% 1016 Sul-sudoeste/10 km/h OK
17/08 - 22:55   Parcialmente Nublado 23° 100% 1016 Sul/7 km/h OK
17/08 - 21:55   Muitas Nuvens 23° 100% 1016 Sul/7 km/h OK
17/08 - 20:55   Muitas Nuvens 23° 100% 1015 Sul-sudoeste/12 km/h OK
17/08 - 19:55   Chovendo fraco 22° 100% 1015 Sul-sudoeste/16 km/h OK
17/08 - 18:55   Chovendo fraco 23° 100% 1014 Sul-sudeste/14 km/h 9000
17/08 - 17:55   Chovendo 23° 100% 1014 Sudeste/18 km/h 3000
17/08 - 16:55   Chovendo na vizinhança 24° 88% 1014 Sul/18 km/h 8000
17/08 - 15:55   Chovendo na vizinhança 25° 88% 1013 Sudeste/19 km/h 6000
17/08 - 14:55   Muitas Nuvens 26° 83% 1013 Sul-sudeste/16 km/h OK
17/08 - 13:55   Chovendo fraco 25° 83% 1014 Sul-sudeste/32 km/h 5000
17/08 - 12:55   Chovendo fraco 24° 94% 1016 Sul/32 km/h 9000
17/08 - 11:55   Parcialmente Nublado 27° 74% 1016 Sul/19 km/h OK
17/08 - 10:55   Parcialmente Nublado 26° 83% 1016 Sul/16 km/h OK
17/08 - 09:55   Parcialmente Nublado 24° 94% 1016 Sul-sudoeste/16 km/h OK
17/08 - 08:55   Parcialmente Nublado 24° 88% 1016 Sul/16 km/h OK
17/08 - 07:55   Nuvens esparsas 22° 94% 1015 Sul-sudoeste/16 km/h OK
17/08 - 06:55   Parcialmente Nublado 22° 100% 1015 Sul-sudoeste/14 km/h OK
17/08 - 05:55   Parcialmente Nublado 22° 94% 1015 Sul-sudoeste/10 km/h OK
17/08 - 04:55   Chovendo fraco 22° 94% 1014 Sul-sudoeste/12 km/h OK
17/08 - 03:55   Céu Limpo 21° 100% 1014 Sul-sudoeste/12 km/h OK
17/08 - 02:55   Céu Limpo 21° 100% 1015 Sul-sudoeste/10 km/h OK
17/08 - 01:55   Céu Limpo 21° 100% 1015 Sul-sudoeste/9 km/h OK
17/08 - 00:55   Céu Limpo 21° 100% 1015 Sul-sudoeste/9 km/h OK


Apolo11.com - Todos os direitos reservados - 2000 - 2017
Política de Privacidade   |     Termo de Uso e Licenciamento   |  -   Entre em Contato

"Até os mais estúpidos entendem o que um rico quer dizer, mas nem os mais doutos entendem o que um pobre está dizendo" - Provérbio Chinês